GW2918 Weather Reports


time (UTC)temp
C
wind
direction
speed
KPH
gust
KPH
rain 1hr
cm
rain 24hr
cm
rain mn
cm
humidity
%
barometer
mb
20260831182943 18 205 4.8 9.7 0.00 0.20 0.20 99 1021.6
20260831181939 18 207 3.2 9.7 0.00 0.20 0.20 99 1021.6
20260831180935 18 202 4.8 6.4 0.00 0.20 0.20 99 1021.5
20260831175934 18 141 3.2 3.2 0.13 0.20 0.20 99 1022.3
20260831174932 18 185 3.2 8.0 0.30 0.18 0.18 99 1022.0
20260831173927 18 188 6.4 8.0 0.13 0.15 0.15 99 1022.3
20260831172927 18 152 1.6 3.2 0.05 0.10 0.10 99 1022.4
20260831171923 18 175 1.6 11.3 0.05 0.10 0.10 99 1022.4
20260831170922 18 219 6.4 8.0 0.05 0.10 0.10 99 1022.6
20260831165920 18 185 3.2 9.7 0.00 0.08 0.08 99 1022.5
20260831164918 18 233 6.4 11.3 0.13 0.08 0.08 99 1022.6
20260831163915 18 199 3.2 6.4 0.00 0.05 0.05 99 1022.8
20260831162914 18 192 3.2 6.4 0.00 0.05 0.05 99 1022.3
20260831161914 18 199 3.2 6.4 0.00 0.05 0.05 99 1022.4
20260831160912 18 177 3.2 6.4 0.00 0.05 0.05 99 1022.7
20260831155908 18 214 3.2 9.7 0.00 0.05 0.05 99 1022.7
20260831154903 18 197 3.2 8.0 0.00 0.05 0.05 99 1022.5
20260831153903 18 184 0.0 3.2 0.00 0.05 0.05 99 1022.5
20260831152901 18 201 3.2 6.4 0.00 0.05 0.05 99 1022.6
20260831151857 18 187 3.2 12.9 0.00 0.05 0.05 99 1022.7
20260831150857 18 146 0.0 4.8 0.00 0.05 0.05 99 1022.8
20260831145852 18 208 0.0 6.4 0.00 0.05 0.05 99 1022.6
20260831144850 18 185 3.2 8.0 0.00 0.05 0.05 99 1022.6
20260831143846 18 148 0.0 6.4 0.00 0.05 0.05 99 1022.5
20260831142842 17 186 3.2 9.7 0.00 0.05 0.05 99 1022.6
20260831141837 17 183 0.0 3.2 0.00 0.05 0.05 99 1022.4
20260831140833 17 141 3.2 3.2 0.00 0.05 0.05 99 1022.5
20260831135832 17 159 0.0 8.0 0.00 0.05 0.05 99 1022.7
20260831134828 17 190 3.2 6.4 0.00 0.05 0.05 99 1022.5
20260831133824 17 175 1.6 1.6 0.00 0.05 0.05 99 1022.5
20260831132819 17 168 0.0 3.2 0.00 0.05 0.05 99 1022.5
20260831131814 17 209 0.0 3.2 0.00 0.05 0.05 99 1022.7
20260831130811 17 0 0.0 3.2 0.00 0.05 0.05 99 1022.4
20260831125806 17 170 0.0 3.2 0.00 0.05 0.05 99 1022.4
20260831124801 17 135 0.0 1.6 0.00 0.05 0.05 99 1022.6
20260831123757 17 145 0.0 3.2 0.00 0.05 0.05 99 1022.7
20260831122757 17 142 0.0 1.6 0.00 0.05 0.05 99 1022.8
20260831121752 17 129 0.0 3.2 0.00 0.05 0.05 99 1022.5
20260831120750 17 82 3.2 4.8 0.00 0.05 0.05 99 1022.4
20260831115745 17 99 4.8 4.8 0.00 0.05 0.05 99 1022.6
20260831114741 17 126 3.2 4.8 0.00 0.05 0.05 99 1022.7
20260831113736 17 142 0.0 0.0 0.00 0.05 0.05 99 1022.8
20260831112735 17 142 0.0 3.2 0.00 0.05 0.05 99 1022.7
20260831111732 16 132 1.6 1.6 0.00 0.05 0.05 99 1022.4
20260831110730 16 55 0.0 3.2 0.00 0.05 0.05 99 1022.0
20260831105729 16 123 3.2 3.2 0.00 0.05 0.05 99 1022.3
20260831104726 16 73 1.6 3.2 0.00 0.05 0.05 99 1022.1
20260831103722 16 163 1.6 3.2 0.00 0.05 0.05 99 1022.3
20260831102717 16 133 0.0 3.2 0.00 0.05 0.05 99 1022.0
20260831101714 16 186 1.6 3.2 0.00 0.05 0.05 99 1021.9
20260831100711 16 133 0.0 1.6 0.00 0.05 0.05 99 1022.0
20260831095711 16 23 0.0 3.2 0.00 0.05 0.05 99 1022.0
20260831094707 16 70 1.6 4.8 0.00 0.05 0.05 99 1021.8
20260831093705 16 68 3.2 4.8 0.00 0.05 0.05 99 1021.9
20260831092702 16 79 1.6 3.2 0.00 0.05 0.05 99 1021.9
20260831091657 16 60 1.6 3.2 0.00 0.05 0.05 99 1022.0
20260831090653 16 87 0.0 3.2 0.00 0.05 0.05 99 1022.0
20260831085650 16 328 1.6 3.2 0.00 0.05 0.05 99 1022.1
20260831084647 16 150 1.6 3.2 0.00 0.05 0.05 99 1022.3
20260831083645 16 135 0.0 1.6 0.00 0.05 0.05 99 1022.1
20260831082644 16 104 3.2 3.2 0.00 0.05 0.05 99 1021.9
20260831081641 16 79 3.2 3.2 0.00 0.05 0.05 99 1021.9
20260831080638 16 64 6.4 8.0 0.00 0.05 0.05 99 1021.8
20260831075635 16 53 3.2 4.8 0.00 0.05 0.05 99 1021.9
20260831074634 16 56 0.0 3.2 0.00 0.05 0.05 99 1021.7
20260831073630 16 77 1.6 3.2 0.00 0.05 0.05 99 1021.6
20260831072625 16 95 1.6 3.2 0.00 0.05 0.05 99 1021.5
20260831071620 16 71 6.4 6.4 0.05 0.05 0.05 99 1021.5
20260831070620 16 72 3.2 6.4 0.00 0.05 0.05 99 1021.9
20260831065619 16 69 8.0 9.7 0.00 0.05 0.05 99 1021.9
20260831064619 16 13 3.2 6.4 0.00 0.05 0.05 99 1022.0
20260831063617 17 39 3.2 6.4 0.00 0.05 0.05 99 1021.8
20260831062612 17 37 1.6 4.8 0.00 0.05 0.05 99 1022.0
20260831061610 17 72 4.8 4.8 0.00 0.05 0.05 99 1022.1
20260831060608 17 106 1.6 3.2 0.00 0.05 0.05 99 1022.4
20260831055608 17 82 1.6 3.2 0.00 0.05 0.05 99 1022.3
20260831054603 17 72 3.2 4.8 0.00 0.05 0.05 99 1022.5
20260831053601 17 19 0.0 3.2 0.00 0.05 0.05 99 1022.5
20260831052601 17 80 3.2 3.2 0.00 0.05 0.05 99 1022.0
20260831051559 17 147 0.0 1.6 0.00 0.05 0.05 99 1022.1
20260831050558 17 166 1.6 3.2 0.00 0.05 0.05 99 1022.1
20260831045556 17 174 0.0 3.2 0.00 0.05 0.05 99 1022.3
20260831044553 17 170 1.6 3.2 0.00 0.05 0.05 99 1022.4
20260831043549 17 336 0.0 3.2 0.00 0.05 0.05 99 1022.6
20260831042543 17 172 0.0 3.2 0.13 0.05 0.05 99 1022.4
20260831041539 17 129 0.0 0.0 0.13 0.03 0.03 99 1022.5
20260831040539 17 57 0.0 1.6 0.05 0.00 0.00 99 1022.5
20260831035537 17 78 1.6 3.2 0.00 0.00 0.00 99 1022.4
20260831034532 17 92 3.2 4.8 0.00 0.00 0.00 99 1022.7
20260831033529 17 254 3.2 3.2 0.05 0.00 0.00 99 1022.6
20260831032529 17 199 1.6 3.2 0.00 0.00 0.00 99 1022.8
20260831031525 17 204 0.0 1.6 0.00 0.00 0.00 99 1022.7
20260831030523 17 217 0.0 1.6 0.00 0.00 0.00 99 1022.5
20260831025521 17 112 1.6 1.6 0.00 0.00 0.00 99 1022.5
20260831024518 17 173 0.0 1.6 0.00 0.00 0.00 99 1022.4
20260831023515 17 126 0.0 3.2 0.00 0.00 0.00 99 1022.6
20260831022515 17 157 0.0 1.6 0.00 0.00 0.00 99 1022.4
20260831021515 17 161 0.0 3.2 0.00 0.00 0.00 99 1022.6
20260831020512 17 38 0.0 1.6 0.00 0.00 0.00 99 1022.8
20260831015508 17 202 0.0 3.2 0.00 0.00 0.00 99 1022.8
20260831014504 17 202 0.0 4.8 0.00 0.00 0.00 99 1022.6
20260831013501 17 168 0.0 1.6 0.00 0.00 0.00 99 1022.6
20260831012456 17 76 0.0 3.2 0.00 0.00 0.00 99 1022.6
20260831011456 18 173 0.0 3.2 0.00 0.00 0.00 99 1022.5
20260831010452 18 110 0.0 1.6 0.00 0.00 0.00 99 1022.6
20260831005450 18 158 1.6 1.6 0.00 0.00 0.00 99 1022.1
20260831004446 18 142 0.0 3.2 0.00 0.00 0.00 99 1022.3
20260831003443 18 55 0.0 3.2 0.00 0.00 0.00 99 1021.9
20260831002441 18 14 0.0 1.6 0.00 0.00 0.00 99 1021.4
20260831001438 18 188 0.0 3.2 0.00 0.00 0.00 99 1021.7
20260831000436 18 135 0.0 1.6 0.00 0.00 0.00 99 1021.3
20260830235436 18 350 0.0 3.2 0.00 0.00 0.00 99 1021.6
20260830234432 18 150 0.0 3.2 0.00 0.00 0.00 98 1021.2
20260830233429 18 178 0.0 3.2 0.00 0.00 0.00 98 1021.4
20260830232426 18 126 0.0 1.6 0.00 0.00 0.00 98 1021.4
20260830231423 18 152 0.0 1.6 0.00 0.00 0.00 97 1021.6
20260830230418 18 174 1.6 3.2 0.00 0.00 0.00 97 1021.4
20260830225413 19 337 1.6 3.2 0.00 0.00 0.00 96 1021.8
20260830224412 19 133 0.0 1.6 0.00 0.00 0.00 96 1021.7
20260830223411 19 156 0.0 3.2 0.00 0.00 0.00 96 1021.6
20260830222406 19 150 3.2 3.2 0.00 0.00 0.00 96 1021.3
20260830221403 18 64 1.6 4.8 0.00 0.00 0.00 95 1021.5
20260830220358 19 83 6.4 6.4 0.00 0.00 0.00 95 1021.6
20260830215356 19 335 1.6 4.8 0.00 0.00 0.00 95 1021.5
20260830214352 20 69 4.8 6.4 0.00 0.00 0.00 94 1021.5
20260830213348 20 26 3.2 3.2 0.00 0.00 0.00 94 1021.7
20260830212345 20 359 3.2 6.4 0.00 0.00 0.00 93 1021.7
20260830211344 20 346 6.4 6.4 0.00 0.00 0.00 92 1021.5
20260830210339 20 353 6.4 8.0 0.00 0.00 0.00 89 1021.4
20260830205336 20 343 0.0 3.2 0.00 0.00 0.00 88 1021.3
20260830204336 21 113 0.0 0.0 0.00 0.00 0.00 86 1021.4
20260830203334 21 37 0.0 3.2 0.00 0.00 0.00 84 1021.2
20260830202329 21 191 4.8 6.4 0.00 0.00 0.00 84 1021.2
20260830201324 21 218 3.2 9.7 0.00 0.00 0.00 84 1021.0
20260830200319 21 221 3.2 9.7 0.00 0.00 0.00 84 1021.1
20260830195314 21 238 3.2 6.4 0.00 0.00 0.00 83 1021.1
20260830194312 21 180 1.6 6.4 0.00 0.00 0.00 82 1021.4
20260830193307 22 201 3.2 4.8 0.00 0.00 0.00 81 1021.3
20260830192305 22 9 0.0 6.4 0.00 0.00 0.00 79 1021.1
20260830191258 22 223 6.4 8.0 0.00 0.00 0.00 78 1021.6
20260830190255 22 220 3.2 6.4 0.00 0.00 0.00 79 1021.5
20260830185255 23 171 3.2 6.4 0.00 0.00 0.00 77 1021.5
20260830184253 23 211 4.8 6.4 0.00 0.00 0.00 75 1021.6